User: anonymous   Login
Location: Unspecified
(0.0000°N, 0.0000°E)
Time: 16:58:34
(UTC+00:00)
Language:

Kosmos-2218 - Orbit

View from above orbital plane
View from above orbital plane
View from above satellite
View from above satellite

Ground track
Ground track

The orbit data is extracted from the following two-line orbital elements,

1 22207U 92073A   17264.79215074 +.00000047 +00000-0 +34832-4 0  9994
2 22207 082.9240 337.7469 0031780 223.6819 276.3197 13.72862193247166
Epoch (UTC): 21 September 2017 19:00:41
Eccentricity: 0.0031780
inclination: 82.9240°
perigee height: 966 km
apogee height: 1013 km
right ascension of ascending node: 337.7469°
argument of perigee: 223.6819°
revolutions per day: 13.72862193
mean anomaly at epoch: 276.3197°
orbit number at epoch: 24716

The dashed part of the orbit path shows where the satellite is in the earth's shadow,  

DLR